Time,TemperatureF,DewpointF,PressureIn,WindDirection,WindDirectionDegrees,WindSpeedMPH,WindSpeedGustMPH,Humidity,HourlyPrecipIn,Conditions,Clouds,dailyrainin,SolarRadiationWatts/m^2,SoftwareType,DateUTC
2013-05-01 00:11:00,69.7,69.0,30.00,SSE,163,0.0,0.0,96,0.00,,,0.00,0,weatherlink.com 1.10,2013-05-01 04:11:00,
2013-05-01 00:27:00,69.6,69.0,29.99,SSE,163,0.0,0.0,96,0.00,,,0.00,0,weatherlink.com 1.10,2013-05-01 04:27:00,
2013-05-01 00:42:00,69.4,68.0,29.99,SSE,163,0.0,0.0,96,0.00,,,0.00,0,weatherlink.com 1.10,2013-05-01 04:42:00,
2013-05-01 00:57:00,69.2,68.0,29.98,SSE,163,0.0,0.0,96,0.00,,,0.00,0,weatherlink.com 1.10,2013-05-01 04:57:00,
2013-05-01 01:12:00,68.9,68.0,29.98,SSE,163,0.0,0.0,96,0.00,,,0.00,0,weatherlink.com 1.10,2013-05-01 05:12:00,
2013-05-01 01:27:00,68.6,68.0,29.97,SSE,163,0.0,0.0,96,0.00,,,0.00,0,weatherlink.com 1.10,2013-05-01 05:27:00,
2013-05-01 01:42:00,68.4,67.0,29.97,SSE,163,0.0,0.0,96,0.00,,,0.00,0,weatherlink.com 1.10,2013-05-01 05:42:00,
2013-05-01 01:57:00,68.4,68.0,29.96,SSE,163,0.0,0.0,97,0.00,,,0.00,0,weatherlink.com 1.10,2013-05-01 05:57:00,
2013-05-01 02:12:00,68.2,67.0,29.96,SSE,163,0.0,0.0,97,0.00,,,0.00,0,weatherlink.com 1.10,2013-05-01 06:12:00,
2013-05-01 02:27:00,68.2,67.0,29.95,SSE,163,0.0,0.0,97,0.00,,,0.00,0,weatherlink.com 1.10,2013-05-01 06:27:00,
2013-05-01 02:42:00,68.0,67.0,29.95,SSE,163,0.0,0.0,97,0.00,,,0.00,0,weatherlink.com 1.10,2013-05-01 06:42:00,
2013-05-01 02:57:00,67.8,67.0,29.94,SSE,163,0.0,0.0,97,0.00,,,0.00,0,weatherlink.com 1.10,2013-05-01 06:57:00,
2013-05-01 03:12:00,67.6,67.0,29.94,SSE,163,0.0,0.0,97,0.00,,,0.00,0,weatherlink.com 1.10,2013-05-01 07:12:00,
2013-05-01 03:27:00,67.4,67.0,29.94,SSE,163,0.0,0.0,97,0.00,,,0.00,0,weatherlink.com 1.10,2013-05-01 07:27:00,
2013-05-01 03:42:00,67.2,66.0,29.93,SSE,163,0.0,0.0,97,0.00,,,0.00,0,weatherlink.com 1.10,2013-05-01 07:42:00,
2013-05-01 03:57:00,67.2,66.0,29.94,SSE,163,0.0,0.0,97,0.00,,,0.00,0,weatherlink.com 1.10,2013-05-01 07:57:00,
2013-05-01 04:12:00,67.2,67.0,29.94,SSE,163,0.0,0.0,98,0.00,,,0.00,0,weatherlink.com 1.10,2013-05-01 08:12:00,
2013-05-01 04:27:00,67.0,66.0,29.94,SSE,164,0.0,0.0,97,0.00,,,0.00,0,weatherlink.com 1.10,2013-05-01 08:27:00,
2013-05-01 04:42:00,67.1,67.0,29.95,SSE,163,0.0,0.0,98,0.00,,,0.00,0,weatherlink.com 1.10,2013-05-01 08:42:00,
2013-05-01 04:57:00,67.2,67.0,29.94,SSE,163,0.0,0.0,98,0.00,,,0.00,0,weatherlink.com 1.10,2013-05-01 08:57:00,
2013-05-01 05:12:00,67.7,67.0,29.94,SSE,163,0.0,0.0,98,0.00,,,0.00,0,weatherlink.com 1.10,2013-05-01 09:12:00,
2013-05-01 05:27:00,68.0,68.0,29.94,SSE,163,0.0,0.0,98,0.00,,,0.00,0,weatherlink.com 1.10,2013-05-01 09:27:00,
2013-05-01 05:42:00,68.0,68.0,29.94,SSE,163,0.0,0.0,98,0.00,,,0.00,0,weatherlink.com 1.10,2013-05-01 09:42:00,
2013-05-01 05:57:00,67.9,67.0,29.94,SSE,163,0.0,0.0,98,0.00,,,0.00,0,weatherlink.com 1.10,2013-05-01 09:57:00,
2013-05-01 06:12:00,68.0,68.0,29.94,SSE,163,0.0,0.0,98,0.00,,,0.00,0,weatherlink.com 1.10,2013-05-01 10:12:00,
2013-05-01 06:27:00,68.1,68.0,29.96,SSE,163,0.0,0.0,98,0.00,,,0.00,0,weatherlink.com 1.10,2013-05-01 10:27:00,
2013-05-01 06:42:00,68.6,68.0,29.96,SSE,163,0.0,0.0,98,0.00,,,0.00,0,weatherlink.com 1.10,2013-05-01 10:42:00,
2013-05-01 06:57:00,68.9,68.0,29.97,SSE,164,0.0,0.0,98,0.00,,,0.00,9,weatherlink.com 1.10,2013-05-01 10:57:00,
2013-05-01 07:12:00,69.2,69.0,29.97,SSE,163,0.0,0.0,99,0.00,,,0.00,19,weatherlink.com 1.10,2013-05-01 11:12:00,
2013-05-01 07:27:00,69.6,69.0,29.98,SSE,163,0.0,0.0,98,0.00,,,0.00,26,weatherlink.com 1.10,2013-05-01 11:27:00,
2013-05-01 07:42:00,70.1,70.0,29.98,SSE,163,0.0,0.0,99,0.00,,,0.00,26,weatherlink.com 1.10,2013-05-01 11:42:00,
2013-05-01 07:57:00,70.7,70.0,29.98,SSE,163,0.0,0.0,99,0.00,,,0.00,40,weatherlink.com 1.10,2013-05-01 11:57:00,
2013-05-01 08:12:00,71.3,71.0,29.98,SSE,163,0.0,0.0,99,0.00,,,0.00,86,weatherlink.com 1.10,2013-05-01 12:12:00,
2013-05-01 08:27:00,72.4,72.0,29.98,NNE,28,0.0,3.0,99,0.00,,,0.00,88,weatherlink.com 1.10,2013-05-01 12:27:00,
2013-05-01 08:42:00,73.3,73.0,29.98,NNE,31,0.0,1.0,98,0.00,,,0.00,144,weatherlink.com 1.10,2013-05-01 12:42:00,
2013-05-01 08:57:00,75.4,73.0,29.98,NE,51,1.0,3.0,92,0.00,,,0.00,118,weatherlink.com 1.10,2013-05-01 12:57:00,
2013-05-01 09:12:00,77.0,73.0,29.98,ENE,65,0.0,2.0,87,0.00,,,0.00,114,weatherlink.com 1.10,2013-05-01 13:12:00,
2013-05-01 09:27:00,78.1,73.0,29.98,ENE,61,1.0,2.0,85,0.00,,,0.00,262,weatherlink.com 1.10,2013-05-01 13:27:00,
2013-05-01 09:43:00,79.5,73.0,29.98,SE,141,2.0,3.0,80,0.00,,,0.00,162,weatherlink.com 1.10,2013-05-01 13:43:00,
2013-05-01 09:58:00,80.0,73.0,29.99,SSE,151,2.0,5.0,78,0.00,,,0.00,225,weatherlink.com 1.10,2013-05-01 13:58:00,
2013-05-01 10:13:00,79.7,73.0,29.99,ESE,120,1.0,6.0,79,0.00,,,0.00,230,weatherlink.com 1.10,2013-05-01 14:13:00,
2013-05-01 10:28:00,80.0,73.0,30.01,SE,136,0.0,3.0,79,0.00,,,0.00,271,weatherlink.com 1.10,2013-05-01 14:28:00,
2013-05-01 10:43:00,80.1,73.0,30.01,SSE,155,0.0,4.0,79,0.00,,,0.00,190,weatherlink.com 1.10,2013-05-01 14:43:00,
2013-05-01 10:58:00,80.0,74.0,30.00,SSE,150,0.0,2.0,81,0.00,,,0.00,169,weatherlink.com 1.10,2013-05-01 14:58:00,
2013-05-01 11:13:00,80.5,73.0,30.00,NE,41,0.0,4.0,79,0.00,,,0.00,339,weatherlink.com 1.10,2013-05-01 15:13:00,
2013-05-01 11:28:00,82.0,72.0,30.00,SE,134,0.0,4.0,72,0.00,,,0.00,378,weatherlink.com 1.10,2013-05-01 15:28:00,
2013-05-01 11:43:00,82.4,73.0,30.00,SSE,161,0.0,6.0,72,0.00,,,0.00,271,weatherlink.com 1.10,2013-05-01 15:43:00,
2013-05-01 11:58:00,82.5,72.0,30.00,SSE,151,0.0,5.0,71,0.00,,,0.00,374,weatherlink.com 1.10,2013-05-01 15:58:00,
2013-05-01 12:13:00,83.4,72.0,29.99,East,97,0.0,4.0,69,0.00,,,0.00,371,weatherlink.com 1.10,2013-05-01 16:13:00,
2013-05-01 12:28:00,83.9,72.0,29.98,East,82,2.0,5.0,67,0.00,,,0.00,628,weatherlink.com 1.10,2013-05-01 16:28:00,
2013-05-01 12:43:00,84.3,72.0,29.98,ESE,123,0.0,6.0,66,0.00,,,0.00,330,weatherlink.com 1.10,2013-05-01 16:43:00,
2013-05-01 12:58:00,84.0,73.0,29.98,East,100,0.0,7.0,69,0.00,,,0.00,325,weatherlink.com 1.10,2013-05-01 16:58:00,
2013-05-01 13:13:00,83.6,72.0,29.98,ENE,70,0.0,5.0,68,0.00,,,0.00,325,weatherlink.com 1.10,2013-05-01 17:13:00,
2013-05-01 13:28:00,84.2,73.0,29.97,SE,134,0.0,5.0,68,0.00,,,0.00,538,weatherlink.com 1.10,2013-05-01 17:28:00,
2013-05-01 13:43:00,85.4,72.0,29.96,SE,140,4.0,9.0,64,0.00,,,0.00,698,weatherlink.com 1.10,2013-05-01 17:43:00,
2013-05-01 13:58:00,84.9,72.0,29.94,East,89,3.0,9.0,65,0.00,,,0.00,309,weatherlink.com 1.10,2013-05-01 17:58:00,
2013-05-01 14:13:00,85.0,71.0,29.94,ENE,68,3.0,6.0,64,0.00,,,0.00,466,weatherlink.com 1.10,2013-05-01 18:13:00,
2013-05-01 14:28:00,84.3,73.0,29.95,SE,126,2.0,6.0,69,0.00,,,0.00,450,weatherlink.com 1.10,2013-05-01 18:28:00,
2013-05-01 14:43:00,83.1,72.0,29.95,ESE,122,2.0,5.0,69,0.00,,,0.00,213,weatherlink.com 1.10,2013-05-01 18:43:00,
2013-05-01 14:58:00,82.5,73.0,29.95,SSE,157,0.0,5.0,72,0.00,,,0.00,153,weatherlink.com 1.10,2013-05-01 18:58:00,
2013-05-01 15:13:00,81.9,72.0,29.95,SE,145,0.0,5.0,73,0.00,,,0.00,95,weatherlink.com 1.10,2013-05-01 19:13:00,
2013-05-01 15:28:00,80.9,72.0,29.95,SE,142,1.0,7.0,74,0.00,,,0.00,42,weatherlink.com 1.10,2013-05-01 19:28:00,
2013-05-01 15:43:00,80.1,72.0,29.94,SE,144,0.0,3.0,75,0.00,,,0.00,23,weatherlink.com 1.10,2013-05-01 19:43:00,
2013-05-01 15:58:00,79.5,71.0,29.95,East,92,0.0,5.0,76,0.00,,,0.00,14,weatherlink.com 1.10,2013-05-01 19:58:00,
2013-05-01 16:13:00,79.2,72.0,29.96,SSE,153,0.0,3.0,78,0.00,,,0.00,7,weatherlink.com 1.10,2013-05-01 20:13:00,
2013-05-01 16:28:00,77.5,69.0,29.99,West,281,4.0,6.0,76,0.00,,,0.00,0,weatherlink.com 1.10,2013-05-01 20:28:00,
2013-05-01 16:43:00,71.2,68.0,29.99,West,277,2.0,6.0,89,0.09,,,0.09,0,weatherlink.com 1.10,2013-05-01 20:43:00,
2013-05-01 16:58:00,69.1,67.0,29.98,West,261,1.0,5.0,93,0.24,,,0.24,5,weatherlink.com 1.10,2013-05-01 20:58:00,
2013-05-01 17:13:00,69.1,67.0,29.97,NNE,22,0.0,2.0,94,0.27,,,0.27,5,weatherlink.com 1.10,2013-05-01 21:13:00,
2013-05-01 17:28:00,69.0,68.0,29.96,NNE,22,0.0,2.0,95,0.31,,,0.31,12,weatherlink.com 1.10,2013-05-01 21:28:00,
2013-05-01 17:43:00,68.8,67.0,29.94,NNW,346,0.0,1.0,95,0.23,,,0.33,42,weatherlink.com 1.10,2013-05-01 21:43:00,
2013-05-01 17:58:00,69.0,68.0,29.96,North,360,0.0,1.0,96,0.09,,,0.33,35,weatherlink.com 1.10,2013-05-01 21:58:00,
2013-05-01 18:13:00,69.0,68.0,29.96,NNE,30,0.0,3.0,96,0.06,,,0.33,26,weatherlink.com 1.10,2013-05-01 22:13:00,
2013-05-01 18:28:00,69.1,68.0,29.96,North,360,0.0,4.0,96,0.02,,,0.33,42,weatherlink.com 1.10,2013-05-01 22:28:00,
2013-05-01 18:43:00,69.2,68.0,29.96,NNW,336,1.0,4.0,96,0.00,,,0.33,14,weatherlink.com 1.10,2013-05-01 22:43:00,
2013-05-01 18:58:00,69.0,68.0,29.96,NNW,336,0.0,3.0,96,0.00,,,0.33,16,weatherlink.com 1.10,2013-05-01 22:58:00,
2013-05-01 19:13:00,69.0,68.0,29.96,NNW,336,0.0,2.0,97,0.00,,,0.33,14,weatherlink.com 1.10,2013-05-01 23:13:00,
2013-05-01 19:28:00,69.0,68.0,29.96,NNW,339,0.0,1.0,96,0.00,,,0.33,5,weatherlink.com 1.10,2013-05-01 23:28:00,
2013-05-01 19:43:00,68.9,68.0,29.97,North,350,0.0,3.0,96,0.00,,,0.33,0,weatherlink.com 1.10,2013-05-01 23:43:00,
2013-05-01 19:58:00,69.0,68.0,29.97,North,350,0.0,1.0,96,0.00,,,0.33,0,weatherlink.com 1.10,2013-05-01 23:58:00,
2013-05-01 20:13:00,69.0,68.0,29.97,North,350,0.0,0.0,96,0.00,,,0.33,0,weatherlink.com 1.10,2013-05-02 00:13:00,
2013-05-01 20:28:00,69.0,68.0,29.98,North,350,0.0,0.0,97,0.00,,,0.33,0,weatherlink.com 1.10,2013-05-02 00:28:00,
2013-05-01 20:43:00,69.0,68.0,29.98,North,350,0.0,0.0,97,0.00,,,0.33,0,weatherlink.com 1.10,2013-05-02 00:43:00,
2013-05-01 20:58:00,69.1,68.0,29.97,NE,44,0.0,3.0,97,0.02,,,0.35,0,weatherlink.com 1.10,2013-05-02 00:58:00,
2013-05-01 21:13:00,68.9,68.0,29.96,ENE,57,0.0,4.0,97,0.02,,,0.35,0,weatherlink.com 1.10,2013-05-02 01:13:00,
2013-05-01 21:28:00,68.9,68.0,29.96,ENE,70,0.0,3.0,97,0.02,,,0.35,0,weatherlink.com 1.10,2013-05-02 01:28:00,
2013-05-01 21:43:00,68.9,68.0,29.98,ENE,63,1.0,1.0,97,0.02,,,0.35,0,weatherlink.com 1.10,2013-05-02 01:43:00,
2013-05-01 21:58:00,69.0,68.0,29.95,NNE,30,0.0,3.0,97,0.00,,,0.35,0,weatherlink.com 1.10,2013-05-02 01:58:00,
2013-05-01 22:13:00,69.0,68.0,29.97,ESE,107,0.0,1.0,97,0.00,,,0.35,0,weatherlink.com 1.10,2013-05-02 02:13:00,
2013-05-01 22:28:00,69.2,68.0,29.95,NNW,344,0.0,2.0,97,0.01,,,0.36,0,weatherlink.com 1.10,2013-05-02 02:28:00,
2013-05-01 22:43:00,69.2,68.0,29.96,East,84,0.0,3.0,97,0.01,,,0.36,0,weatherlink.com 1.10,2013-05-02 02:43:00,
2013-05-01 22:58:00,69.4,69.0,29.94,ESE,103,0.0,1.0,97,0.01,,,0.36,0,weatherlink.com 1.10,2013-05-02 02:58:00,
2013-05-01 23:13:00,69.6,69.0,29.95,East,99,0.0,3.0,97,0.01,,,0.36,0,weatherlink.com 1.10,2013-05-02 03:13:00,
2013-05-01 23:28:00,69.6,69.0,29.95,ESE,103,0.0,3.0,96,0.00,,,0.36,0,weatherlink.com 1.10,2013-05-02 03:28:00,
2013-05-01 23:43:00,69.9,69.0,29.97,West,279,0.0,4.0,96,0.00,,,0.36,0,weatherlink.com 1.10,2013-05-02 03:43:00,
2013-05-01 23:58:00,69.9,69.0,29.97,West,279,0.0,2.0,96,0.00,,,0.36,0,weatherlink.com 1.10,2013-05-02 03:58:00,